ROMMA est une association bénévole à but non lucratif. Votre soutien est indispensable : ADHERER à ROMMA ou FAIRE un DON

Chambon - (38, Isère)

Oisans (2460 m)   Longitude: 06° 10' 42" E   Latitude: 45° 01' 32" N Station partenaire n°803
 

Détail journalier du     <<     >>

Température Humidité Vent Dir Rafale Dir. rafale Neige 1 Neige 2
Heure (°C) (%) (km/h) (km/h) (cm) (cm)
01:00 -12.49213NE21NE209223
02:00 -12.59211NE20ENE208223
03:00 -11.79113NNE19NE208222
04:00 -10.9897NNE17NNE208221
05:00 -10.2835NNE15NNE208240
06:00 -9.3786NNE12NNE208240
07:00 -8.1716OSO11OSO207240
08:00 -6.5617SO20SO207240
09:00 -3.9179SSO21SSO207240
10:00 -1.0116SSO16SSO206240
11:00 0.993N8SSE206240
12:00 4.672N5N205239
13:00 0.4142N6N205228
14:00 -0.5235NNE11NNE205240
15:00 0.8235NNE13O204239
16:00 0.9245O12O203240
17:00 1.2253OSO15OSO203240
18:00 -2.0296SE23SE203240
19:00 -1.63310NE22E203240
20:00 -0.6316N14NNE202240
21:00 -3.1356N12SO202240
22:00 -3.8474NNE11SO202240
23:00 -3.9373NNE9NNE202240
minuit -3.5403N9N202240

Graphique du 05-04-2019

 

Serveur OMMA